This demonstration page uses our WeatherBlox Daily Observations layout. Learn more.

Left ArrowRight Arrow

41.12389, -100.76542

Hourly Observations for September 16, 2020

Temp ( °F °C ) Dew Point ( °F °C ) Humidity (%) Winds ( mph kmh ) Pressure ( in mb ) Visibility ( mi km ) Precip ( " mm )
12:53 am 00:53 Clear 60 15.6 50 10 70 70 Calm 29.98 1015 10 16 0.00 0.00
1:53 am 01:53 Clear 55 12.8 48 8.9 77 77 Calm 30.00 1016 10 16 0.00 0.00
2:53 am 02:53 Clear 52 11.1 46 7.8 80 80 Calm 30.00 1016 10 16 0.00 0.00
3:53 am 03:53 Clear 55 12.8 48 8.9 77 77 Calm 30.00 1016 10 16 0.00 0.00
4:53 am 04:53 Clear 50 10 46 7.8 86 86 Calm 30.02 1017 10 16 0.00 0.00
5:53 am 05:53 Clear 56 13.3 50 10 81 81 VRB 3 6 30.05 1018 10 16 0.00 0.00
6:53 am 06:53 Clear 59 15 53 11.7 81 81 VRB 6 9 30.09 1019 10 16 0.00 0.00
7:53 am 07:53 Sunny 58 14.4 53 11.7 84 84 NNE 6 9 30.14 1021 10 16 0.00 0.00
8:53 am 08:53 Sunny 60 15.6 54 12.2 80 80 NNE 8 13 30.19 1022 10 16 0.00 0.00
9:53 am 09:53 Sunny 62 16.7 52 11.1 70 70 NNE 14 22 30.22 1023 10 16 0.00 0.00
10:53 am 10:53 Sunny 65 18.3 51 10.6 61 61 NNE 14 22 30.22 1024 10 16 0.00 0.00
11:53 am 11:53 Sunny 68 20 49 9.4 51 51 N 15 24 30.22 1024 10 16 0.00 0.00
12:53 pm 12:53 Sunny 71 21.7 48 8.9 44 44 NNE 13 20 30.22 1024 10 16 0.00 0.00
1:53 pm 13:53 Sunny 73 22.8 48 8.9 41 41 NNE 17 28 30.23 1024 10 16 0.00 0.00
2:53 pm 14:53 Sunny 74 23.3 49 9.4 41 41 NE 12 19 30.23 1024 10 16 0.00 0.00
3:53 pm 15:53 Sunny 74 23.3 49 9.4 41 41 NNE 10 17 30.22 1023 10 16 0.00 0.00
4:53 pm 16:53 Sunny 73 22.8 48 8.9 41 41 NE 12 19 30.22 1024 10 16 0.00 0.00
5:53 pm 17:53 Sunny 72 22.2 48 8.9 43 43 NNE 10 17 30.21 1023 10 16 0.00 0.00
6:53 pm 18:53 Sunny 69 20.6 48 8.9 47 47 ENE 7 11 30.23 1024 10 16 0.00 0.00
7:53 pm 19:53 Clear 60 15.6 48 8.9 65 65 NE 6 9 30.24 1024 10 16 0.00 0.00
8:53 pm 20:53 Clear 55 12.8 46 7.8 72 72 NE 5 7 30.26 1025 10 16 0.00 0.00
9:53 pm 21:53 Clear 53 11.7 46 7.8 77 77 E 3 6 30.27 1025 10 16 0.00 0.00
10:53 pm 22:53 Clear 50 10 45 7.2 83 83 ENE 3 6 30.26 1025 10 16 0.00 0.00
11:53 pm 23:53 Clear 49 9.4 45 7.2 86 86 E 3 6 30.25 1024 10 16 0.00 0.00

Powered by AerisWeather